STARLINK-2049 (47356 NORAD) Tracking and Keplerian Element Data

This shows tracking and keplerian element data for the satellite.

Feedback or suggestion? Click here.




ElementValue
Catalog47356
NameSTARLINK-2049
Epoch Orbit182
Epoch Day99.91667824
Epoch Year2021
RAAN181.7141
Inclination53.0536
Eccentricity0.0004136
Argument of Perigee6.5508
Mean Anonmoly55.5303
Mean Motion15.62775675
Decay Rate-0.00092546
L11 47356U 21005H 21099.91667824 -.00092546 00000-0 -10150-2 0 9994
L22 47356 53.0536 181.7141 0004136 6.5508 55.5303 15.62775675 1823

Live tracking and technical data element details for STARLINK-2049 (NORAD 47356). STARLINK-2049 can be tracked NOW for your location showing map with azimuth and elevation plus other details from your city location.

Track the satellite on the map from your city or location and see movement details for azimuth, elevation, latitude, longitude, range, height, and movement on the map or in text.







IsCatalogInMostPopularTable: catalog: 47356, numindb: 16
Update: records affected: 1



GetName: 47356 STARLINK-2049

Hit Count: updated at: Sat, 10 Apr 2021 18:58:31 GMT